Time,TemperatureF,DewpointF,PressureIn,WindDirection,WindDirectionDegrees,WindSpeedMPH,WindSpeedGustMPH,Humidity,HourlyPrecipIn,Conditions,Clouds,dailyrainin,SoftwareType,DateUTC
2013-02-05 00:04:00,41.7,30.0,30.02,SW,225,0.0,2.0,64,0.00,,,0.04,weatherlink.com 1.10,2013-02-05 05:04:00,
2013-02-05 00:19:00,41.6,30.0,30.02,SSW,212,0.0,2.0,64,0.00,,,0.04,weatherlink.com 1.10,2013-02-05 05:19:00,
2013-02-05 00:34:00,41.1,30.0,30.01,South,177,0.0,2.0,65,0.00,,,0.04,weatherlink.com 1.10,2013-02-05 05:34:00,
2013-02-05 00:49:00,40.7,30.0,30.01,South,177,0.0,2.0,66,0.00,,,0.04,weatherlink.com 1.10,2013-02-05 05:49:00,
2013-02-05 01:04:00,40.4,30.0,30.00,South,177,0.0,1.0,67,0.00,,,0.04,weatherlink.com 1.10,2013-02-05 06:04:00,
2013-02-05 01:19:00,39.8,30.0,29.99,South,177,0.0,0.0,69,0.00,,,0.04,weatherlink.com 1.10,2013-02-05 06:19:00,
2013-02-05 01:34:00,38.9,31.0,29.99,South,177,0.0,1.0,72,0.00,,,0.04,weatherlink.com 1.10,2013-02-05 06:34:00,
2013-02-05 01:49:00,38.2,31.0,29.99,South,177,0.0,0.0,75,0.00,,,0.04,weatherlink.com 1.10,2013-02-05 06:49:00,
2013-02-05 02:05:00,37.9,30.0,29.99,South,177,0.0,1.0,74,0.00,,,0.00,weatherlink.com 1.10,2013-02-05 07:05:00,
2013-02-05 02:20:00,37.7,30.0,29.98,South,177,0.0,0.0,74,0.00,,,0.00,weatherlink.com 1.10,2013-02-05 07:20:00,
2013-02-05 02:35:00,36.9,30.0,29.98,South,177,0.0,0.0,76,0.00,,,0.00,weatherlink.com 1.10,2013-02-05 07:35:00,
2013-02-05 02:50:00,35.9,30.0,29.97,South,177,0.0,0.0,78,0.00,,,0.00,weatherlink.com 1.10,2013-02-05 07:50:00,
2013-02-05 03:05:00,35.0,29.0,29.96,South,177,0.0,0.0,80,0.00,,,0.00,weatherlink.com 1.10,2013-02-05 08:05:00,
2013-02-05 03:20:00,34.7,30.0,29.96,South,177,1.0,2.0,82,0.00,,,0.00,weatherlink.com 1.10,2013-02-05 08:20:00,
2013-02-05 03:35:00,35.3,30.0,29.96,South,177,0.0,1.0,82,0.00,,,0.00,weatherlink.com 1.10,2013-02-05 08:35:00,
2013-02-05 03:50:00,35.4,30.0,29.95,South,177,0.0,1.0,82,0.00,,,0.00,weatherlink.com 1.10,2013-02-05 08:50:00,
2013-02-05 04:05:00,35.1,30.0,29.95,South,177,0.0,0.0,81,0.00,,,0.00,weatherlink.com 1.10,2013-02-05 09:05:00,
2013-02-05 04:20:00,34.5,30.0,29.96,South,177,1.0,1.0,83,0.00,,,0.00,weatherlink.com 1.10,2013-02-05 09:20:00,
2013-02-05 04:35:00,33.9,29.0,29.96,South,177,0.0,1.0,83,0.00,,,0.00,weatherlink.com 1.10,2013-02-05 09:35:00,
2013-02-05 04:50:00,33.4,29.0,29.96,South,177,0.0,0.0,85,0.00,,,0.00,weatherlink.com 1.10,2013-02-05 09:50:00,
2013-02-05 05:05:00,33.4,29.0,29.95,South,177,2.0,2.0,85,0.00,,,0.00,weatherlink.com 1.10,2013-02-05 10:05:00,
2013-02-05 05:20:00,33.8,30.0,29.95,South,177,0.0,1.0,85,0.00,,,0.00,weatherlink.com 1.10,2013-02-05 10:20:00,
2013-02-05 05:35:00,34.2,30.0,29.96,South,177,0.0,1.0,83,0.00,,,0.00,weatherlink.com 1.10,2013-02-05 10:35:00,
2013-02-05 05:50:00,33.6,30.0,29.96,South,177,0.0,1.0,85,0.00,,,0.00,weatherlink.com 1.10,2013-02-05 10:50:00,
2013-02-05 06:05:00,33.6,30.0,29.96,South,177,1.0,1.0,85,0.00,,,0.00,weatherlink.com 1.10,2013-02-05 11:05:00,
2013-02-05 06:20:00,33.8,30.0,29.97,South,177,0.0,1.0,85,0.00,,,0.00,weatherlink.com 1.10,2013-02-05 11:20:00,
2013-02-05 06:35:00,34.1,30.0,29.98,South,177,0.0,1.0,84,0.00,,,0.00,weatherlink.com 1.10,2013-02-05 11:35:00,
2013-02-05 06:50:00,33.9,30.0,29.98,South,177,1.0,1.0,84,0.00,,,0.00,weatherlink.com 1.10,2013-02-05 11:50:00,
2013-02-05 07:05:00,33.4,30.0,29.97,South,177,0.0,1.0,86,0.00,,,0.00,weatherlink.com 1.10,2013-02-05 12:05:00,
2013-02-05 07:20:00,33.4,29.0,29.97,South,177,0.0,1.0,85,0.00,,,0.00,weatherlink.com 1.10,2013-02-05 12:20:00,
2013-02-05 07:35:00,33.8,30.0,29.98,South,177,0.0,2.0,85,0.00,,,0.00,weatherlink.com 1.10,2013-02-05 12:35:00,
2013-02-05 07:50:00,34.0,30.0,29.98,South,177,0.0,2.0,86,0.00,,,0.00,weatherlink.com 1.10,2013-02-05 12:50:00,
2013-02-05 08:05:00,34.4,31.0,29.99,South,177,0.0,0.0,87,0.00,,,0.00,weatherlink.com 1.10,2013-02-05 13:05:00,
2013-02-05 08:20:00,35.6,32.0,30.00,ESE,120,0.0,4.0,85,0.00,,,0.00,weatherlink.com 1.10,2013-02-05 13:20:00,
2013-02-05 08:35:00,38.4,32.0,30.00,SE,130,2.0,4.0,79,0.00,,,0.00,weatherlink.com 1.10,2013-02-05 13:35:00,
2013-02-05 08:50:00,41.4,33.0,30.00,SE,129,4.0,4.0,72,0.00,,,0.00,weatherlink.com 1.10,2013-02-05 13:50:00,
2013-02-05 09:05:00,42.4,33.0,30.00,SE,130,4.0,5.0,70,0.00,,,0.00,weatherlink.com 1.10,2013-02-05 14:05:00,
2013-02-05 09:20:00,44.0,34.0,30.00,SE,135,2.0,4.0,67,0.00,,,0.00,weatherlink.com 1.10,2013-02-05 14:20:00,
2013-02-05 09:35:00,44.8,34.0,30.00,SE,146,2.0,5.0,66,0.00,,,0.00,weatherlink.com 1.10,2013-02-05 14:35:00,
2013-02-05 09:51:00,46.2,35.0,29.99,WSW,237,4.0,7.0,64,0.00,,,0.00,weatherlink.com 1.10,2013-02-05 14:51:00,
2013-02-05 10:06:00,48.5,35.0,29.99,SE,138,3.0,10.0,61,0.00,,,0.00,weatherlink.com 1.10,2013-02-05 15:06:00,
2013-02-05 10:21:00,50.2,36.0,29.99,South,179,7.0,11.0,58,0.00,,,0.00,weatherlink.com 1.10,2013-02-05 15:21:00,
2013-02-05 10:36:00,51.4,36.0,29.99,WNW,283,2.0,7.0,55,0.00,,,0.00,weatherlink.com 1.10,2013-02-05 15:36:00,
2013-02-05 10:51:00,53.1,37.0,29.98,SSW,205,5.0,8.0,55,0.00,,,0.00,weatherlink.com 1.10,2013-02-05 15:51:00,
2013-02-05 11:06:00,53.1,36.0,29.98,SSW,192,3.0,9.0,52,0.00,,,0.00,weatherlink.com 1.10,2013-02-05 16:06:00,
2013-02-05 11:21:00,54.2,37.0,29.98,SW,219,3.0,6.0,52,0.00,,,0.00,weatherlink.com 1.10,2013-02-05 16:21:00,
2013-02-05 11:36:00,54.8,37.0,29.97,WNW,295,4.0,6.0,51,0.00,,,0.00,weatherlink.com 1.10,2013-02-05 16:36:00,
2013-02-05 11:51:00,55.3,37.0,29.97,SE,126,4.0,8.0,50,0.00,,,0.00,weatherlink.com 1.10,2013-02-05 16:51:00,
2013-02-05 12:06:00,57.0,37.0,29.96,SSW,198,2.0,7.0,47,0.00,,,0.00,weatherlink.com 1.10,2013-02-05 17:06:00,
2013-02-05 12:21:00,57.6,37.0,29.95,SSW,201,2.0,5.0,47,0.00,,,0.00,weatherlink.com 1.10,2013-02-05 17:21:00,
2013-02-05 12:36:00,58.6,39.0,29.95,East,94,2.0,9.0,49,0.00,,,0.00,weatherlink.com 1.10,2013-02-05 17:36:00,
2013-02-05 12:51:00,59.0,39.0,29.94,WNW,292,1.0,11.0,48,0.00,,,0.00,weatherlink.com 1.10,2013-02-05 17:51:00,
2013-02-05 13:06:00,58.8,40.0,29.93,NW,312,2.0,7.0,51,0.00,,,0.00,weatherlink.com 1.10,2013-02-05 18:06:00,
2013-02-05 13:21:00,60.6,41.0,29.92,SW,218,2.0,7.0,49,0.00,,,0.00,weatherlink.com 1.10,2013-02-05 18:21:00,
2013-02-05 13:36:00,61.2,42.0,29.91,SE,130,5.0,9.0,49,0.00,,,0.00,weatherlink.com 1.10,2013-02-05 18:36:00,
2013-02-05 13:51:00,62.3,43.0,29.90,SW,233,6.0,10.0,49,0.00,,,0.00,weatherlink.com 1.10,2013-02-05 18:51:00,
2013-02-05 14:06:00,63.1,44.0,29.90,NW,318,4.0,9.0,51,0.00,,,0.00,weatherlink.com 1.10,2013-02-05 19:06:00,
2013-02-05 14:21:00,63.0,44.0,29.90,ESE,119,2.0,11.0,51,0.00,,,0.00,weatherlink.com 1.10,2013-02-05 19:21:00,
2013-02-05 14:36:00,63.6,45.0,29.89,West,280,0.0,10.0,51,0.00,,,0.00,weatherlink.com 1.10,2013-02-05 19:36:00,
2013-02-05 14:51:00,63.1,44.0,29.89,West,262,3.0,10.0,51,0.00,,,0.00,weatherlink.com 1.10,2013-02-05 19:51:00,
2013-02-05 15:06:00,64.0,45.0,29.89,WNW,288,6.0,8.0,50,0.00,,,0.00,weatherlink.com 1.10,2013-02-05 20:06:00,
2013-02-05 15:22:00,64.0,45.0,29.88,SE,144,4.0,12.0,51,0.00,,,0.00,weatherlink.com 1.10,2013-02-05 20:22:00,
2013-02-05 15:52:00,64.0,45.0,29.88,North,5,7.0,13.0,51,0.00,,,0.00,weatherlink.com 1.10,2013-02-05 20:52:00,
2013-02-05 16:07:00,64.0,44.0,29.89,SSE,147,14.0,14.0,49,0.00,,,0.00,weatherlink.com 1.10,2013-02-05 21:07:00,
2013-02-05 16:22:00,63.5,45.0,29.89,West,272,1.0,10.0,51,0.00,,,0.00,weatherlink.com 1.10,2013-02-05 21:22:00,
2013-02-05 16:37:00,62.7,45.0,29.90,West,280,2.0,9.0,52,0.00,,,0.00,weatherlink.com 1.10,2013-02-05 21:37:00,
2013-02-05 16:52:00,62.4,44.0,29.90,SW,236,4.0,9.0,52,0.00,,,0.00,weatherlink.com 1.10,2013-02-05 21:52:00,
2013-02-05 17:07:00,61.8,45.0,29.89,East,92,1.0,6.0,55,0.00,,,0.00,weatherlink.com 1.10,2013-02-05 22:07:00,
2013-02-05 17:22:00,61.6,45.0,29.89,WSW,239,1.0,5.0,54,0.00,,,0.00,weatherlink.com 1.10,2013-02-05 22:22:00,
2013-02-05 17:37:00,60.9,44.0,29.90,East,96,1.0,6.0,55,0.00,,,0.00,weatherlink.com 1.10,2013-02-05 22:37:00,
2013-02-05 17:52:00,60.3,44.0,29.90,SW,224,1.0,6.0,56,0.00,,,0.00,weatherlink.com 1.10,2013-02-05 22:52:00,
2013-02-05 18:07:00,59.6,45.0,29.90,SE,145,2.0,6.0,58,0.00,,,0.00,weatherlink.com 1.10,2013-02-05 23:07:00,
2013-02-05 18:37:00,58.2,45.0,29.92,WSW,256,0.0,3.0,62,0.00,,,0.00,weatherlink.com 1.10,2013-02-05 23:37:00,
2013-02-05 18:52:00,57.6,45.0,29.93,NW,323,0.0,2.0,64,0.00,,,0.00,weatherlink.com 1.10,2013-02-05 23:52:00,
2013-02-05 19:07:00,56.9,46.0,29.93,South,188,1.0,3.0,66,0.00,,,0.00,weatherlink.com 1.10,2013-02-06 00:07:00,
2013-02-05 19:22:00,56.4,45.0,29.93,West,270,1.0,4.0,67,0.00,,,0.00,weatherlink.com 1.10,2013-02-06 00:22:00,
2013-02-05 19:37:00,55.9,46.0,29.94,SSE,151,0.0,3.0,69,0.00,,,0.00,weatherlink.com 1.10,2013-02-06 00:37:00,
2013-02-05 19:52:00,55.5,46.0,29.94,SW,215,1.0,3.0,70,0.00,,,0.00,weatherlink.com 1.10,2013-02-06 00:52:00,
2013-02-05 20:07:00,54.7,45.0,29.95,South,189,0.0,2.0,71,0.00,,,0.00,weatherlink.com 1.10,2013-02-06 01:07:00,
2013-02-05 20:22:00,53.8,45.0,29.95,South,189,1.0,1.0,73,0.00,,,0.00,weatherlink.com 1.10,2013-02-06 01:22:00,
2013-02-05 23:37:00,45.9,43.0,29.98,SSE,161,0.0,0.0,88,0.00,,,0.00,weatherlink.com 1.10,2013-02-06 04:37:00,
2013-02-05 23:52:00,44.6,42.0,29.98,SSE,161,0.0,0.0,90,0.00,,,0.00,weatherlink.com 1.10,2013-02-06 04:52:00,